STARLINK-11391, 62889

Orbit data source: Space-Track

STARLINK-11391, 62889 is a payload satellite owned by SpaceX/Seattle (US) in LEO that was launched on Tue, 04 Feb 2025 UTC via an FALCON 9 launch vehicle from the Air Force Eastern Test Range (AFETR). Payload-class satellites include a variety of spacecraft equipped with specific instruments for various scientific and technological missions. These include communications satellites like Starlink; space stations such as the ISS; scientific satellites like the Hubble; Earth observation satellites from companies like Planet Labs, Umbra, and HawkEye 360; GPS; miniature CubeSats for education and research; and military/defense satellites.

Loading next visibility...
Identifier
62889, 2025-024L
Orbit
LEO
Last TLE update
9 hours ago
Origin
Manufacturer
SpaceX/Seattle
Mission
Operational Commercial Communications
Bus & Motor
STARLINK V2M, Unknown motor
Mass
730 kg wet, ~700 kg dry
Launch date (UTC)
2025-02-04 (5 months ago)
Launch vehicle
FALCON 9
Launch site
Air Force Eastern Test Range (AFETR)
Object type
Payload
Rocket body
Debris
Shape & HBR
Box + 2 Pan, 29 m
Radar Cross Section
36.964 m², Large (>1 m²)

Expand to show TLE details & history

TLE from 9 hours ago
0 STARLINK-11391
1 62889U 25024L   25183.46019163  .00143111  00000-0  10986-2 0  9992
2 62889  42.9992 249.6071 0001196 264.8582  95.2149 15.70863850 24112
Epoch: 2025-07-02T11:02Z
TLE epoch observation values (Epoch: 2025-07-02T11:02:40.556Z)
Latitude
-0.00004°
Longitude
163.19709°
Altitude
356.271 km
Speed
7.697 km/s
True Right ascension
16h 38m 25s
True Declination
0° 00' 00"
Sunlit
Object was in full shadow at epoch
Visualization orbit readout
Latitude
-22.931°
Longitude
134.11655°
Altitude
361.101 km
Speed
7.694 km/s
Apparent Right ascension
16h 53m 27s
Apparent Declination
-37° 17' 06"
Sunlit
Object is in full shadow
Visualization observer readout
Local Sidereal Time
07:47:09
Azimuth
99.736° ESE
Elevation
-56.295°
Doppler factor
1
Orbital elements
Apogee altitude
359.214 km
Perigee altitude
357.603 km
Semi-major axis
6,736.546 km
Eccentricity
0.00012
Inclination
42.9992°
RAAN
249.6071°
Arg. of periapsis
264.8582°
True anomaly
Unknown
Mean anomaly
95.2149°
Eccentric anomaly
Unknown
Mean motion
3.92543 °/min
Orbital period
91.71 mins
BSTAR
0.0010986
Loading maneuver chart data...
Loading SW <> Apogee altitude chart data...
Loading historical data...
Loading historical data...
Loading historical data...
Loading historical data...
Loading historical data...
Loading historical data...
Loading historical data...

STARLINK-11391 Visibility forecast

Observer location: undefined°, undefined°

Span
Click to sort rows by Start time (UTC) header in descending order
Start Az.
Max El. time (UTC)
Max El. Az.
Max El.
End time (UTC)
End Az.
4 mins2025-07-03 08:40:11.434Z249.394° W2025-07-03 08:42:11.434Z86.002° E44.461°2025-07-03 08:44:11.434Z72.389° E
4 mins2025-07-03 11:53:11.434Z296.007° NW2025-07-03 11:54:11.434Z320.211° NNW40.93°2025-07-03 11:57:11.434Z100.308° ESE
|